EN

Hourly Weather Hruz'ke

Today, 19 April, Monday

Time Temperature Precipitation Wind Pressure Humidity
00:00 +10°C° 0 mm 2 mps 753 mmHg 65%
01:00 +10°C° 0 mm 2 mps 753 mmHg 66%
02:00 +11°C° 0 mm 1 mps 753 mmHg 67%
03:00 +9°C° 0 mm 2 mps 753 mmHg 71%
04:00 +9°C° 0 mm 2 mps 753 mmHg 74%
05:00 +8°C° 0 mm 2 mps 753 mmHg 78%
06:00 +9°C° 0 mm 2 mps 753 mmHg 76%
07:00 +9°C° 0 mm 2 mps 753 mmHg 74%
08:00 +10°C° 0 mm 2 mps 753 mmHg 72%
09:00 +12°C° 0 mm 2 mps 753 mmHg 66%
10:00 +13°C° 0 mm 1 mps 753 mmHg 61%
11:00 +14°C° 0 mm 1 mps 752 mmHg 55%
12:00 +14°C° 0.1 mm 1 mps 752 mmHg 54%
13:00 +15°C° 0.1 mm 1 mps 752 mmHg 52%
14:00 +15°C° 0.1 mm 1 mps 752 mmHg 51%
15:00 +15°C° 0.1 mm 1 mps 751 mmHg 53%
16:00 +14°C° 0.1 mm 2 mps 751 mmHg 55%
17:00 +14°C° 0.1 mm 2 mps 751 mmHg 57%
18:00 +12°C° 0 mm 3 mps 751 mmHg 59%
19:00 +12°C° 0 mm 3 mps 751 mmHg 62%
20:00 +11°C° 0 mm 4 mps 751 mmHg 65%
21:00 +11°C° 0 mm 3 mps 750 mmHg 67%
22:00 +10°C° 0 mm 3 mps 750 mmHg 69%
23:00 +10°C° 0 mm 3 mps 749 mmHg 71%

Tomorrow, 20 April, Tuesday

Time Temperature Precipitation Wind Pressure Humidity
00:00 +9°C° 0 mm 3 mps 749 mmHg 72%
01:00 +9°C° 0 mm 3 mps 749 mmHg 72%
02:00 +9°C° 0 mm 3 mps 748 mmHg 73%
03:00 +9°C° 0 mm 3 mps 748 mmHg 74%
04:00 +8°C° 0 mm 4 mps 747 mmHg 74%
05:00 +8°C° 0 mm 4 mps 747 mmHg 75%
06:00 +8°C° 0.3 mm 4 mps 746 mmHg 78%
07:00 +8°C° 0.3 mm 4 mps 746 mmHg 81%
08:00 +8°C° 0.3 mm 5 mps 746 mmHg 83%
09:00 +8°C° 0.2 mm 5 mps 745 mmHg 82%
10:00 +8°C° 0.2 mm 5 mps 745 mmHg 82%
11:00 +9°C° 0.2 mm 6 mps 745 mmHg 81%
12:00 +9°C° 0.2 mm 6 mps 745 mmHg 79%
13:00 +9°C° 0.2 mm 6 mps 744 mmHg 77%
14:00 +10°C° 0.2 mm 6 mps 744 mmHg 75%
15:00 +10°C° 0.2 mm 6 mps 745 mmHg 74%
16:00 +10°C° 0.2 mm 6 mps 745 mmHg 73%
17:00 +10°C° 0.2 mm 5 mps 745 mmHg 72%
18:00 +10°C° 0 mm 5 mps 746 mmHg 72%
19:00 +9°C° 0 mm 5 mps 746 mmHg 73%
20:00 +9°C° 0 mm 5 mps 747 mmHg 73%
21:00 +8°C° 0 mm 5 mps 747 mmHg 76%
22:00 +7°C° 0 mm 4 mps 748 mmHg 80%
23:00 +6°C° 0 mm 4 mps 748 mmHg 83%

Day after tomorrow, 21 April, Wednesday

Time Temperature Precipitation Wind Pressure Humidity
00:00 +6°C° 0 mm 4 mps 748 mmHg 84%
01:00 +5°C° 0 mm 4 mps 749 mmHg 86%
02:00 +5°C° 0 mm 4 mps 749 mmHg 87%
03:00 +4°C° 0 mm 3 mps 749 mmHg 87%
04:00 +4°C° 0 mm 3 mps 750 mmHg 88%
05:00 +3°C° 0 mm 3 mps 750 mmHg 88%
06:00 +5°C° 0 mm 4 mps 750 mmHg 80%
07:00 +7°C° 0 mm 4 mps 751 mmHg 72%
08:00 +10°C° 0 mm 4 mps 751 mmHg 64%
09:00 +11°C° 0 mm 4 mps 752 mmHg 58%
10:00 +12°C° 0 mm 4 mps 752 mmHg 52%
11:00 +14°C° 0 mm 4 mps 752 mmHg 47%
12:00 +14°C° 0 mm 4 mps 752 mmHg 44%
13:00 +15°C° 0 mm 4 mps 752 mmHg 42%
14:00 +17°C° 0 mm 4 mps 752 mmHg 39%
15:00 +15°C° 0 mm 4 mps 752 mmHg 44%
16:00 +14°C° 0 mm 4 mps 752 mmHg 48%
17:00 +14°C° 0 mm 3 mps 753 mmHg 53%
18:00 +13°C° 0 mm 3 mps 753 mmHg 59%
19:00 +12°C° 0 mm 3 mps 753 mmHg 65%
20:00 +11°C° 0 mm 3 mps 754 mmHg 71%
21:00 +11°C° 0 mm 3 mps 754 mmHg 73%
22:00 +10°C° 0 mm 2 mps 754 mmHg 75%
23:00 +10°C° 0 mm 2 mps 754 mmHg 77%

22 April, Thursday

Time Temperature Precipitation Wind Pressure Humidity
00:00 +9°C° 0 mm 2 mps 754 mmHg 80%
01:00 +9°C° 0 mm 2 mps 754 mmHg 84%
02:00 +8°C° 0 mm 2 mps 754 mmHg 88%
03:00 +8°C° 0 mm 2 mps 754 mmHg 89%
04:00 +7°C° 0 mm 2 mps 754 mmHg 90%
05:00 +7°C° 0 mm 2 mps 755 mmHg 92%
06:00 +8°C° 0 mm 2 mps 755 mmHg 86%
07:00 +10°C° 0 mm 2 mps 755 mmHg 79%
08:00 +11°C° 0 mm 3 mps 755 mmHg 73%
09:00 +12°C° 0.1 mm 3 mps 755 mmHg 66%
10:00 +14°C° 0.1 mm 3 mps 755 mmHg 59%
11:00 +16°C° 0.1 mm 3 mps 755 mmHg 52%
12:00 +17°C° 0.1 mm 3 mps 755 mmHg 48%
13:00 +18°C° 0.1 mm 3 mps 755 mmHg 43%
14:00 +19°C° 0.1 mm 3 mps 755 mmHg 39%
15:00 +18°C° 0 mm 3 mps 755 mmHg 43%
16:00 +17°C° 0 mm 3 mps 755 mmHg 48%
17:00 +16°C° 0 mm 3 mps 755 mmHg 53%
18:00 +14°C° 0 mm 3 mps 755 mmHg 57%
19:00 +13°C° 0 mm 3 mps 756 mmHg 62%
20:00 +12°C° 0 mm 3 mps 756 mmHg 66%
21:00 +12°C° 0 mm 3 mps 756 mmHg 69%
22:00 +11°C° 0 mm 3 mps 756 mmHg 72%
23:00 +10°C° 0 mm 3 mps 756 mmHg 74%

23 April, Friday

Time Temperature Precipitation Wind Pressure Humidity
00:00 +10°C° 0 mm 3 mps 756 mmHg 77%
01:00 +9°C° 0 mm 3 mps 756 mmHg 79%
02:00 +9°C° 0 mm 3 mps 756 mmHg 81%
03:00 +8°C° 0 mm 3 mps 756 mmHg 82%
04:00 +8°C° 0 mm 3 mps 756 mmHg 83%
05:00 +8°C° 0 mm 3 mps 755 mmHg 84%
06:00 +8°C° 0 mm 4 mps 755 mmHg 77%
07:00 +10°C° 0 mm 5 mps 755 mmHg 70%
08:00 +13°C° 0 mm 6 mps 755 mmHg 63%
09:00 +14°C° 0 mm 6 mps 755 mmHg 59%
10:00 +15°C° 0 mm 7 mps 755 mmHg 54%
11:00 +17°C° 0 mm 8 mps 755 mmHg 49%
12:00 +17°C° 0.1 mm 8 mps 754 mmHg 48%
13:00 +17°C° 0.1 mm 8 mps 754 mmHg 47%
14:00 +18°C° 0.1 mm 8 mps 754 mmHg 45%
15:00 +17°C° 0.1 mm 8 mps 754 mmHg 49%
16:00 +16°C° 0.1 mm 8 mps 753 mmHg 53%
17:00 +16°C° 0.1 mm 8 mps 753 mmHg 56%
18:00 +14°C° 0.2 mm 6 mps 754 mmHg 63%
19:00 +13°C° 0.2 mm 4 mps 754 mmHg 70%
20:00 +12°C° 0.2 mm 3 mps 754 mmHg 76%
21:00 +11°C° 0.5 mm 3 mps 754 mmHg 79%
22:00 +11°C° 0.5 mm 3 mps 754 mmHg 82%
23:00 +10°C° 0.5 mm 3 mps 754 mmHg 85%

24 April, Saturday

Time Temperature Precipitation Wind Pressure Humidity
00:00 +10°C° 0.7 mm 3 mps 754 mmHg 86%
01:00 +9°C° 0.7 mm 2 mps 754 mmHg 88%
02:00 +9°C° 0.7 mm 2 mps 754 mmHg 90%
03:00 +9°C° 0 mm 2 mps 754 mmHg 90%
04:00 +8°C° 0 mm 2 mps 754 mmHg 89%
05:00 +8°C° 0 mm 2 mps 754 mmHg 89%
06:00 +9°C° 0 mm 2 mps 754 mmHg 80%
07:00 +10°C° 0 mm 3 mps 754 mmHg 72%
08:00 +10°C° 0 mm 3 mps 754 mmHg 63%
09:00 +11°C° 0 mm 3 mps 754 mmHg 58%
10:00 +13°C° 0 mm 2 mps 754 mmHg 53%
11:00 +14°C° 0 mm 2 mps 753 mmHg 48%
12:00 +15°C° 0 mm 2 mps 753 mmHg 47%
13:00 +15°C° 0 mm 1 mps 753 mmHg 45%
14:00 +15°C° 0 mm 1 mps 753 mmHg 44%
15:00 +15°C° 0 mm 2 mps 752 mmHg 48%
16:00 +14°C° 0 mm 2 mps 752 mmHg 53%
17:00 +14°C° 0 mm 2 mps 752 mmHg 57%
18:00 +13°C° 0 mm 2 mps 752 mmHg 61%
19:00 +12°C° 0 mm 2 mps 752 mmHg 65%
20:00 +12°C° 0 mm 1 mps 752 mmHg 68%
21:00 +11°C° 0 mm 1 mps 751 mmHg 70%
22:00 +11°C° 0 mm 1 mps 751 mmHg 72%
23:00 +11°C° 0 mm 1 mps 751 mmHg 74%
Show more

We Need Your Consent

Meteoprog and our Service Providers may store and access personal data such as cookies, device identifiers or other similar technologies on your device and process such data to personalise content and ads, as well as provide social media features and to analyse the traffic.

  • Store and/or access information on your device

    Cookies, device identifiers or other information can be stored or accessed on your device for the purposes indicated above.

  • Personalised ads and content, ad and content measurement, audience insights, and products development

    Ads and content can be personalised based on a profile. More data can be added to better personalise ads and content. Ad and content performance can be measured. Insights about the audience who saw the ads and content can be derived. Such data can be used to develop or improve user’s experience, systems and software.

By clicking ‘I Agree’ you will allow the use of indicated cookies, device identifiers, web beacons or other similar technologies. Your settings can be changed in the browser on your device.

For certain purposes, legitimate interests may be relied on, rather than consent. You can read more about this in our Privacy and Cookie Policy.